When you browse on this site, cookies collect data to enhance your experience and personalize the content and advertising you see.
Visit our Privacy Policy to learn more. By continuing to use the site, you agree to this use of cookies and data.
  • In Schweiz
  • Länderverzeichnis
  • Für 7 Tage
  • Wassertemperatur
  • Wetterkarte
  • Widgets
  • user-avatar
    Anmelden

    Stündliche Wetter Hobart

    Heute, 21 August, Mittwoch

    Zeit Temperatur Niederschläge Wind Luftdruck Luftfeuchtigkeit
    00:00 +5°C° 0.2 mm 6 m/S 736 mmHg 86%
    01:00 +5°C° 0.2 mm 7 m/S 736 mmHg 87%
    02:00 +4°C° 0.4 mm 7 m/S 736 mmHg 87%
    03:00 +4°C° 0.4 mm 7 m/S 736 mmHg 87%
    04:00 +5°C° 0 mm 5 m/S 735 mmHg 93%
    05:00 +4°C° 0.4 mm 6 m/S 735 mmHg 90%
    06:00 +3°C° 0.4 mm 7 m/S 735 mmHg 86%
    07:00 +2°C° 0.4 mm 8 m/S 736 mmHg 83%
    08:00 +4°C° 0.1 mm 8 m/S 736 mmHg 80%
    09:00 +3°C° 0.1 mm 9 m/S 737 mmHg 76%
    10:00 +5°C° 0 mm 6 m/S 738 mmHg 75%
    11:00 +5°C° 0.4 mm 7 m/S 738 mmHg 75%
    12:00 +5°C° 0.4 mm 8 m/S 738 mmHg 75%
    13:00 +5°C° 0.4 mm 9 m/S 738 mmHg 75%
    14:00 +5°C° 0.3 mm 9 m/S 738 mmHg 75%
    15:00 +5°C° 0.3 mm 8 m/S 738 mmHg 75%
    16:00 +5°C° 0.3 mm 8 m/S 738 mmHg 75%
    17:00 +4°C° 0.1 mm 7 m/S 738 mmHg 80%
    18:00 +3°C° 0.1 mm 5 m/S 737 mmHg 85%
    19:00 +3°C° 0.1 mm 4 m/S 737 mmHg 90%
    20:00 +3°C° 1.9 mm 4 m/S 737 mmHg 91%
    21:00 +3°C° 1.9 mm 5 m/S 736 mmHg 92%
    22:00 +3°C° 1.9 mm 6 m/S 736 mmHg 93%
    23:00 +2°C° 1.1 mm 6 m/S 737 mmHg 93%

    Morgen, 22 August, Donnerstag

    Zeit Temperatur Niederschläge Wind Luftdruck Luftfeuchtigkeit
    00:00 +2°C° 1.1 mm 7 m/S 738 mmHg 92%
    01:00 +2°C° 1.1 mm 7 m/S 738 mmHg 91%
    02:00 0°C° 0.2 mm 7 m/S 740 mmHg 89%
    03:00 0°C° 0.2 mm 7 m/S 741 mmHg 87%
    04:00 -1°C° 0.2 mm 7 m/S 742 mmHg 84%
    05:00 -1°C° 0.1 mm 7 m/S 743 mmHg 86%
    06:00 0°C° 0.1 mm 7 m/S 744 mmHg 87%
    07:00 0°C° 0.1 mm 7 m/S 745 mmHg 88%
    08:00 +2°C° 0.1 mm 7 m/S 746 mmHg 82%
    09:00 +3°C° 0.1 mm 7 m/S 747 mmHg 76%
    10:00 +4°C° 0.1 mm 7 m/S 748 mmHg 70%
    11:00 +5°C° 0 mm 7 m/S 748 mmHg 66%
    12:00 +5°C° 0 mm 7 m/S 748 mmHg 62%
    13:00 +6°C° 0 mm 7 m/S 749 mmHg 59%
    14:00 +7°C° 0 mm 6 m/S 749 mmHg 60%
    15:00 +7°C° 0 mm 5 m/S 749 mmHg 61%
    16:00 +7°C° 0 mm 4 m/S 750 mmHg 62%
    17:00 +5°C° 0 mm 4 m/S 750 mmHg 70%
    18:00 +3°C° 0 mm 3 m/S 751 mmHg 77%
    19:00 +3°C° 0 mm 2 m/S 751 mmHg 85%
    20:00 +2°C° 0 mm 2 m/S 751 mmHg 87%
    21:00 +1°C° 0 mm 2 m/S 752 mmHg 89%
    22:00 +1°C° 0 mm 2 m/S 752 mmHg 91%
    23:00 +1°C° 0 mm 2 m/S 751 mmHg 91%

    übermorgen, 23 August, Freitag

    Zeit Temperatur Niederschläge Wind Luftdruck Luftfeuchtigkeit
    00:00 +1°C° 0 mm 2 m/S 751 mmHg 92%
    01:00 -1°C° 0 mm 2 m/S 751 mmHg 92%
    02:00 -1°C° 0 mm 2 m/S 750 mmHg 92%
    03:00 -1°C° 0 mm 2 m/S 750 mmHg 92%
    04:00 -1°C° 0 mm 2 m/S 749 mmHg 92%
    05:00 -1°C° 0 mm 2 m/S 749 mmHg 92%
    06:00 0°C° 0 mm 3 m/S 749 mmHg 92%
    07:00 0°C° 0 mm 3 m/S 749 mmHg 93%
    08:00 +2°C° 0 mm 3 m/S 749 mmHg 84%
    09:00 +5°C° 0 mm 3 m/S 748 mmHg 75%
    10:00 +9°C° 0 mm 3 m/S 748 mmHg 66%
    11:00 +10°C° 0 mm 3 m/S 747 mmHg 63%
    12:00 +11°C° 0 mm 3 m/S 747 mmHg 60%
    13:00 +14°C° 0 mm 2 m/S 746 mmHg 57%
    14:00 +12°C° 0 mm 3 m/S 745 mmHg 59%
    15:00 +12°C° 0 mm 3 m/S 745 mmHg 62%
    16:00 +11°C° 0 mm 3 m/S 744 mmHg 64%
    17:00 +9°C° 0 mm 3 m/S 744 mmHg 71%
    18:00 +7°C° 0 mm 4 m/S 744 mmHg 77%
    19:00 +5°C° 0 mm 4 m/S 743 mmHg 84%
    20:00 +5°C° 0 mm 4 m/S 743 mmHg 85%
    21:00 +5°C° 0 mm 3 m/S 743 mmHg 85%
    22:00 +5°C° 0 mm 3 m/S 742 mmHg 86%
    23:00 +5°C° 0 mm 4 m/S 742 mmHg 84%

    24 August, Samstag

    Zeit Temperatur Niederschläge Wind Luftdruck Luftfeuchtigkeit
    00:00 +6°C° 0 mm 4 m/S 741 mmHg 81%
    01:00 +6°C° 0 mm 5 m/S 741 mmHg 79%
    02:00 +6°C° 0 mm 5 m/S 740 mmHg 79%
    03:00 +6°C° 0 mm 4 m/S 739 mmHg 79%
    04:00 +7°C° 0 mm 4 m/S 739 mmHg 80%
    05:00 +7°C° 0.1 mm 4 m/S 739 mmHg 80%
    06:00 +8°C° 0.1 mm 4 m/S 739 mmHg 81%
    07:00 +9°C° 0.1 mm 3 m/S 740 mmHg 81%
    08:00 +8°C° 0.7 mm 3 m/S 740 mmHg 85%
    09:00 +8°C° 0.7 mm 3 m/S 741 mmHg 88%
    10:00 +7°C° 0.7 mm 2 m/S 741 mmHg 91%
    11:00 +7°C° 0.1 mm 3 m/S 742 mmHg 86%
    12:00 +8°C° 0.1 mm 3 m/S 742 mmHg 81%
    13:00 +8°C° 0.1 mm 3 m/S 742 mmHg 76%
    14:00 +8°C° 0 mm 3 m/S 743 mmHg 72%
    15:00 +8°C° 0 mm 3 m/S 743 mmHg 68%
    16:00 +8°C° 0 mm 3 m/S 743 mmHg 64%
    17:00 +7°C° 0 mm 3 m/S 744 mmHg 71%
    18:00 +4°C° 0 mm 3 m/S 745 mmHg 77%
    19:00 +3°C° 0 mm 3 m/S 745 mmHg 83%
    20:00 +2°C° 0 mm 3 m/S 746 mmHg 85%
    21:00 +2°C° 0 mm 3 m/S 746 mmHg 87%
    22:00 +1°C° 0 mm 3 m/S 747 mmHg 89%
    23:00 +1°C° 0 mm 3 m/S 747 mmHg 90%

    25 August, Sonntag

    Zeit Temperatur Niederschläge Wind Luftdruck Luftfeuchtigkeit
    00:00 +1°C° 0 mm 3 m/S 748 mmHg 90%
    01:00 +1°C° 0 mm 3 m/S 748 mmHg 90%
    02:00 0°C° 0 mm 3 m/S 748 mmHg 91%
    03:00 +1°C° 0 mm 2 m/S 748 mmHg 92%
    04:00 +1°C° 0 mm 2 m/S 748 mmHg 92%
    05:00 +2°C° 0 mm 2 m/S 748 mmHg 92%
    06:00 +2°C° 0 mm 2 m/S 748 mmHg 91%
    07:00 +2°C° 0 mm 2 m/S 749 mmHg 91%
    08:00 +4°C° 0 mm 2 m/S 749 mmHg 81%
    09:00 +5°C° 0 mm 3 m/S 749 mmHg 71%
    10:00 +8°C° 0 mm 3 m/S 749 mmHg 62%
    11:00 +9°C° 0 mm 3 m/S 749 mmHg 60%
    12:00 +9°C° 0 mm 3 m/S 749 mmHg 59%
    13:00 +10°C° 0 mm 3 m/S 749 mmHg 58%
    14:00 +9°C° 0 mm 3 m/S 749 mmHg 62%
    15:00 +9°C° 0 mm 3 m/S 749 mmHg 66%
    16:00 +9°C° 0 mm 3 m/S 749 mmHg 70%
    17:00 +8°C° 0 mm 3 m/S 749 mmHg 76%
    18:00 +5°C° 0 mm 3 m/S 749 mmHg 82%
    19:00 +4°C° 0 mm 3 m/S 750 mmHg 88%
    20:00 +5°C° 0 mm 2 m/S 750 mmHg 89%
    21:00 +5°C° 0 mm 2 m/S 750 mmHg 90%
    22:00 +4°C° 0 mm 2 m/S 750 mmHg 91%
    23:00 +4°C° 0 mm 3 m/S 750 mmHg 91%

    26 August, Montag

    Zeit Temperatur Niederschläge Wind Luftdruck Luftfeuchtigkeit
    00:00 +4°C° 0 mm 3 m/S 750 mmHg 90%
    01:00 +5°C° 0 mm 3 m/S 750 mmHg 89%
    02:00 +5°C° 0 mm 3 m/S 750 mmHg 88%
    03:00 +5°C° 0 mm 3 m/S 750 mmHg 88%
    04:00 +7°C° 0 mm 3 m/S 750 mmHg 87%
    05:00 +5°C° 0 mm 3 m/S 750 mmHg 87%
    06:00 +5°C° 0 mm 3 m/S 751 mmHg 88%
    07:00 +5°C° 0 mm 3 m/S 751 mmHg 89%
    08:00 +7°C° 0 mm 3 m/S 751 mmHg 84%
    09:00 +8°C° 0 mm 3 m/S 752 mmHg 79%
    10:00 +9°C° 0 mm 3 m/S 752 mmHg 74%
    11:00 +10°C° 0.1 mm 3 m/S 752 mmHg 68%
    12:00 +11°C° 0.1 mm 3 m/S 752 mmHg 62%
    13:00 +12°C° 0.1 mm 3 m/S 752 mmHg 55%
    14:00 +12°C° 0 mm 3 m/S 752 mmHg 56%
    15:00 +11°C° 0 mm 3 m/S 752 mmHg 57%
    16:00 +12°C° 0 mm 2 m/S 752 mmHg 58%
    17:00 +9°C° 0 mm 2 m/S 752 mmHg 67%
    18:00 +7°C° 0 mm 2 m/S 753 mmHg 76%
    19:00 +6°C° 0 mm 1 m/S 753 mmHg 85%
    20:00 +6°C° 0 mm 1 m/S 753 mmHg 88%
    21:00 +4°C° 0 mm 2 m/S 754 mmHg 90%
    22:00 +4°C° 0 mm 2 m/S 754 mmHg 92%
    23:00 +4°C° 0 mm 2 m/S 754 mmHg 91%
    Mehr zeigen